EW5858 Weather Reports


time (UTC)temp
C
wind
direction
speed
KPH
gust
KPH
rain 1hr
cm
rain 24hr
cm
rain mn
cm
humidity
%
barometer
mb
20260906115535 21 86 1.6 3.2 0.00 0.00 0.00 85 1018.4
20260906115036 20 184 1.6 6.4 0.00 0.00 0.00 85 1018.4
20260906114752 20 81 1.6 6.4 0.00 0.00 0.00 86 1018.3
20260906114241 20 71 0.0 1.6 0.00 0.00 0.00 86 1018.1
20260906114117 20 54 0.0 3.2 0.00 0.00 0.00 86 1018.2
20260906113006 20 91 0.0 1.6 0.00 0.00 0.00 86 1018.0
20260906112737 20 0 0.0 1.6 0.00 0.00 0.00 86 1018.0
20260906111952 20 0 0.0 1.6 0.00 0.00 0.00 86 1018.0
20260906111452 20 188 0.0 0.0 0.00 0.00 0.00 86 1017.9
20260906111439 20 0 0.0 0.0 0.00 0.00 0.00 86 1017.9
20260906110438 20 0 0.0 0.0 0.00 0.00 0.00 86 1017.9
20260906110208 20 0 0.0 0.0 0.00 0.00 0.00 86 1017.8
20260906105442 20 0 0.0 0.0 0.00 0.00 0.00 86 1017.8
20260906105437 20 0 0.0 0.0 0.00 0.00 0.00 86 1017.8
20260906104708 21 0 0.0 0.0 0.00 0.00 0.00 85 1017.7
20260906103937 21 0 0.0 0.0 0.00 0.00 0.00 85 1017.6
20260906103436 21 0 0.0 0.0 0.00 0.00 0.00 85 1017.4
20260906102937 21 0 0.0 0.0 0.00 0.00 0.00 85 1017.4
20260906102436 21 0 0.0 0.0 0.00 0.00 0.00 85 1017.5
20260906101936 21 0 0.0 0.0 0.00 0.00 0.00 85 1017.5
20260906101437 21 0 0.0 1.6 0.00 0.00 0.00 84 1017.3
20260906100937 21 0 0.0 1.6 0.00 0.00 0.00 84 1017.3
20260906100437 21 0 0.0 1.6 0.00 0.00 0.00 84 1017.4
20260906100154 21 0 0.0 1.6 0.00 0.00 0.00 84 1017.4
20260906095423 21 0 0.0 0.0 0.00 0.00 0.00 83 1017.3
20260906094923 22 0 0.0 0.0 0.00 0.00 0.00 83 1017.4
20260906094428 22 0 0.0 0.0 0.00 0.00 0.00 83 1017.3
20260906094423 22 0 0.0 0.0 0.00 0.00 0.00 83 1017.3
20260906093409 22 0 0.0 0.0 0.00 0.00 0.00 83 1017.3
20260906092909 22 0 0.0 0.0 0.00 0.00 0.00 83 1017.3
20260906092640 22 0 0.0 1.6 0.00 0.00 0.00 83 1017.3
20260906092125 22 0 0.0 1.6 0.00 0.00 0.00 83 1017.3
20260906091355 22 0 0.0 0.0 0.00 0.00 0.00 83 1017.3
20260906090854 22 0 0.0 1.6 0.00 0.00 0.00 83 1017.3
20260906090355 22 67 0.0 1.6 0.00 0.00 0.00 83 1017.2
20260906085855 22 0 0.0 1.6 0.00 0.00 0.00 83 1017.2
20260906085355 22 88 0.0 1.6 0.00 0.00 0.00 83 1017.3
20260906085125 22 0 0.0 0.0 0.00 0.00 0.00 83 1017.3
20260906084339 22 0 0.0 0.0 0.00 0.00 0.00 83 1017.2
20260906083824 22 0 0.0 1.6 0.00 0.00 0.00 83 1017.2
20260906083310 22 0 0.0 1.6 0.00 0.00 0.00 83 1017.1
20260906082810 22 0 0.0 0.0 0.00 0.00 0.00 83 1017.1
20260906082307 22 0 0.0 1.6 0.00 0.00 0.00 83 1017.1
20260906081755 22 0 0.0 1.6 0.00 0.00 0.00 83 1017.1
20260906081241 22 62 0.0 1.6 0.00 0.00 0.00 83 1017.1
20260906080740 22 0 0.0 0.0 0.00 0.00 0.00 83 1017.1
20260906080241 22 0 0.0 1.6 0.00 0.00 0.00 83 1017.1
20260906075741 22 0 0.0 1.6 0.00 0.00 0.00 83 1017.1
20260906075241 22 0 0.0 1.6 0.00 0.00 0.00 83 1017.1
20260906074741 22 0 0.0 0.0 0.00 0.00 0.00 83 1017.1
20260906074509 22 0 0.0 1.6 0.00 0.00 0.00 83 1017.1
20260906073739 22 0 0.0 1.6 0.00 0.00 0.00 83 1017.0
20260906073239 22 0 0.0 0.0 0.00 0.00 0.00 84 1017.1
20260906072739 22 0 0.0 3.2 0.00 0.00 0.00 84 1017.2
20260906072240 22 0 0.0 3.2 0.00 0.00 0.00 84 1017.2
20260906071740 22 0 0.0 1.6 0.00 0.00 0.00 85 1017.2
20260906071239 22 0 0.0 1.6 0.00 0.00 0.00 85 1017.2
20260906071011 22 0 0.0 1.6 0.00 0.00 0.00 85 1017.3
20260906070240 22 0 0.0 0.0 0.00 0.00 0.00 85 1017.3
20260906065739 22 27 0.0 1.6 0.00 0.00 0.00 84 1017.2
20260906065227 22 0 0.0 1.6 0.00 0.00 0.00 84 1017.2
20260906064726 22 0 0.0 1.6 0.00 0.00 0.00 84 1017.2
20260906064212 22 64 0.0 1.6 0.00 0.00 0.00 84 1017.2
20260906063942 22 345 0.0 1.6 0.00 0.00 0.00 84 1017.2
20260906063212 22 57 0.0 1.6 0.00 0.00 0.00 84 1017.2
20260906062712 22 0 0.0 1.6 0.00 0.00 0.00 85 1017.2
20260906062212 22 87 0.0 3.2 0.00 0.00 0.00 85 1017.2
20260906061658 22 36 0.0 3.2 0.00 0.00 0.00 85 1017.2
20260906061142 22 0 0.0 0.0 0.00 0.00 0.00 85 1017.2
20260906060642 22 0 0.0 0.0 0.00 0.00 0.00 86 1017.2
20260906060142 22 0 0.0 0.0 0.00 0.00 0.00 86 1017.2
20260906055643 22 0 0.0 1.6 0.00 0.00 0.00 86 1017.2
20260906055414 22 0 0.0 1.6 0.00 0.00 0.00 86 1017.2
20260906054914 21 82 0.0 1.6 0.00 0.00 0.00 86 1017.2
20260906054143 21 0 0.0 1.6 0.00 0.00 0.00 87 1017.2
20260906053643 21 0 0.0 0.0 0.00 0.00 0.00 87 1017.1
20260906053142 21 0 0.0 1.6 0.00 0.00 0.00 87 1017.1
20260906052629 21 0 0.0 1.6 0.00 0.00 0.00 87 1017.0
20260906052130 21 0 0.0 1.6 0.00 0.00 0.00 87 1017.0
20260906051634 21 0 0.0 1.6 0.00 0.00 0.00 87 1016.9
20260906051128 21 0 0.0 0.0 0.00 0.00 0.00 87 1016.8
20260906050600 21 0 0.0 0.0 0.00 0.00 0.00 87 1016.8
20260906050059 22 0 0.0 1.6 0.00 0.00 0.00 87 1016.8
20260906045602 22 0 0.0 3.2 0.00 0.00 0.00 87 1016.7
20260906045058 22 345 0.0 3.2 0.00 0.00 0.00 87 1016.7
20260906044834 22 0 0.0 3.2 0.00 0.00 0.00 87 1016.7
20260906044059 22 0 0.0 3.2 0.00 0.00 0.00 87 1016.7
20260906043559 22 81 0.0 1.6 0.00 0.00 0.00 87 1016.6
20260906043059 22 119 0.0 1.6 0.00 0.00 0.00 87 1016.6
20260906042600 22 0 0.0 1.6 0.00 0.00 0.00 87 1016.4
20260906042321 22 156 0.0 1.6 0.00 0.00 0.00 87 1016.4
20260906041542 22 318 0.0 1.6 0.00 0.00 0.00 86 1016.4
20260906041042 22 273 0.0 1.6 0.00 0.00 0.00 86 1016.3
20260906040415 22 288 0.0 1.6 0.00 0.00 0.00 86 1016.3
20260906035904 22 300 0.0 1.6 0.00 0.00 0.00 86 1016.2
20260906035403 22 71 0.0 3.2 0.00 0.00 0.00 86 1016.2
20260906034905 22 41 0.0 3.2 0.00 0.00 0.00 86 1016.2
20260906034359 22 97 0.0 1.6 0.00 0.00 0.00 85 1016.2
20260906033844 22 0 0.0 3.2 0.00 0.00 0.00 85 1016.2
20260906033616 22 0 0.0 4.8 0.00 0.00 0.00 85 1016.2
20260906032848 22 107 0.0 4.8 0.00 0.00 0.00 85 1016.2
20260906032331 22 90 0.0 1.6 0.00 0.00 0.00 85 1016.2
20260906031701 22 87 0.0 1.6 0.00 0.00 0.00 85 1016.2
20260906031200 22 47 0.0 4.8 0.00 0.00 0.00 85 1016.2
20260906030700 22 310 1.6 4.8 0.00 0.00 0.00 85 1016.2
20260906030145 22 32 1.6 3.2 0.00 0.00 0.00 85 1016.2
20260906025645 22 269 1.6 3.2 0.00 0.00 0.00 85 1016.2
20260906025145 22 0 0.0 3.2 0.00 0.00 0.00 84 1016.2
20260906024646 22 91 0.0 3.2 0.00 0.00 0.00 84 1016.2
20260906024415 22 0 0.0 3.2 0.00 0.00 0.00 84 1016.2
20260906023644 22 278 0.0 3.2 0.00 0.00 0.00 84 1016.2
20260906023145 22 44 0.0 1.6 0.00 0.00 0.00 84 1016.1
20260906022644 22 82 0.0 3.2 0.00 0.00 0.00 83 1016.2
20260906022132 22 348 1.6 3.2 0.00 0.00 0.00 83 1016.2
20260906021631 22 282 1.6 3.2 0.00 0.00 0.00 83 1016.3
20260906021131 22 282 1.6 3.2 0.00 0.00 0.00 83 1016.3
20260906020631 22 276 1.6 3.2 0.00 0.00 0.00 83 1016.4
20260906020116 22 71 1.6 3.2 0.00 0.00 0.00 83 1016.4
20260906015617 22 298 0.0 3.2 0.00 0.00 0.00 82 1016.4
20260906015117 22 307 0.0 4.8 0.00 0.00 0.00 82 1016.3
20260906014616 22 58 1.6 4.8 0.00 0.00 0.00 82 1016.3
20260906014117 22 46 1.6 4.8 0.00 0.00 0.00 83 1016.3
20260906013617 22 295 0.0 3.2 0.00 0.00 0.00 82 1016.4
20260906013116 22 0 1.6 4.8 0.00 0.00 0.00 82 1016.3
20260906012616 22 36 1.6 4.8 0.00 0.00 0.00 82 1016.4
20260906012348 22 0 1.6 4.8 0.00 0.00 0.00 82 1016.3
20260906011617 22 0 0.0 4.8 0.00 0.00 0.00 82 1016.2
20260906011104 22 276 0.0 3.2 0.00 0.00 0.00 82 1016.1
20260906010603 22 322 1.6 3.2 0.00 0.00 0.00 82 1016.1
20260906010048 22 0 1.6 3.2 0.00 0.00 0.00 82 1015.9
20260906005547 22 266 1.6 3.2 0.00 0.00 0.00 82 1015.8
20260906005048 22 291 1.6 3.2 0.00 0.00 0.00 83 1015.7
20260906004549 22 335 0.0 3.2 0.00 0.00 0.00 83 1015.8
20260906004048 22 105 1.6 3.2 0.00 0.00 0.00 83 1015.7
20260906003548 22 348 1.6 3.2 0.00 0.00 0.00 83 1015.7
20260906003053 22 292 1.6 3.2 0.00 0.00 0.00 83 1015.7
20260906003047 22 338 1.6 3.2 0.00 0.00 0.00 83 1015.7
20260906002046 22 272 1.6 3.2 0.00 0.00 0.00 83 1015.7
20260906001533 22 80 1.6 3.2 0.00 0.00 0.00 83 1015.7
20260906001033 22 0 1.6 4.8 0.00 0.00 0.00 83 1015.7
20260906000518 22 306 1.6 4.8 0.00 0.00 0.00 83 1015.7
20260906000018 22 63 1.6 4.8 0.00 0.00 0.00 83 1015.7
20260905235518 22 277 1.6 4.8 0.00 0.00 0.00 83 1015.7
20260905235250 22 290 1.6 4.8 0.00 0.00 0.00 82 1015.7
20260905234519 22 309 1.6 3.2 0.00 0.00 0.00 82 1015.8
20260905234018 22 151 1.6 3.2 0.00 0.00 0.00 82 1015.8
20260905233519 22 285 1.6 3.2 0.00 0.00 0.00 82 1015.7
20260905233018 22 266 1.6 3.2 0.00 0.00 0.00 82 1015.6
20260905232750 22 72 1.6 3.2 0.00 0.00 0.00 82 1015.7
20260905232019 22 66 1.6 4.8 0.00 0.00 0.00 82 1015.7
20260905231504 22 308 1.6 6.4 0.00 0.00 0.00 82 1015.6
20260905231005 22 291 1.6 6.4 0.00 0.00 0.00 82 1015.5
20260905230505 22 88 1.6 3.2 0.00 0.00 0.00 81 1015.4
20260905225950 22 40 1.6 6.4 0.00 0.00 0.00 82 1015.4
20260905225720 23 127 1.6 6.4 0.00 0.00 0.00 82 1015.4
20260905225221 23 79 1.6 4.8 0.00 0.00 0.00 82 1015.5
20260905224721 23 250 1.6 4.8 0.00 0.00 0.00 81 1015.5
20260905223954 23 264 0.0 3.2 0.00 0.00 0.00 82 1015.6
20260905223449 23 47 1.6 6.4 0.00 0.00 0.00 82 1015.5
20260905222948 23 307 3.2 8.0 0.00 0.00 0.00 82 1015.6
20260905222940 23 358 1.6 8.0 0.00 0.00 0.00 81 1015.5
20260905221935 23 46 1.6 8.0 0.00 0.00 0.00 81 1015.4
20260905221421 23 56 1.6 8.0 0.00 0.00 0.00 81 1015.4
20260905220920 23 219 1.6 8.0 0.00 0.00 0.00 81 1015.3
20260905220420 24 334 0.0 3.2 0.00 0.00 0.00 81 1015.4
20260905215906 24 294 0.0 3.2 0.00 0.00 0.00 81 1015.2
20260905215405 24 0 0.0 3.2 0.00 0.00 0.00 80 1015.2
20260905214850 24 96 0.0 4.8 0.00 0.00 0.00 80 1015.2
20260905214352 24 57 1.6 4.8 0.00 0.00 0.00 80 1015.1
20260905214122 24 308 1.6 3.2 0.00 0.00 0.00 80 1015.0
20260905213621 25 198 1.6 6.4 0.00 0.00 0.00 80 1014.9
20260905212851 25 107 1.6 6.4 0.00 0.00 0.00 80 1014.9
20260905212351 25 0 0.0 3.2 0.00 0.00 0.00 79 1014.9
20260905211849 25 0 1.6 3.2 0.00 0.00 0.00 80 1014.9
20260905211350 25 0 1.6 4.8 0.00 0.00 0.00 80 1014.9
20260905210850 25 90 1.6 6.4 0.00 0.00 0.00 80 1015.0
20260905210350 25 0 1.6 6.4 0.00 0.00 0.00 80 1014.9
20260905205837 25 276 1.6 3.2 0.00 0.00 0.00 79 1014.9
20260905205337 25 314 1.6 3.2 0.00 0.00 0.00 78 1014.9
20260905204836 25 125 1.6 4.8 0.00 0.00 0.00 79 1014.9
20260905204322 25 0 1.6 4.8 0.00 0.00 0.00 79 1014.9
20260905203822 25 32 1.6 3.2 0.00 0.00 0.00 79 1014.9
20260905203554 25 343 1.6 3.2 0.00 0.00 0.00 79 1014.9
20260905202821 25 64 1.6 3.2 0.00 0.00 0.00 79 1015.0
20260905202323 25 94 1.6 3.2 0.00 0.00 0.00 80 1014.9
20260905201822 25 0 1.6 3.2 0.00 0.00 0.00 79 1015.0
20260905201322 25 0 1.6 4.8 0.00 0.00 0.00 78 1015.0
20260905201052 25 270 1.6 4.8 0.00 0.00 0.00 78 1015.1
20260905200307 25 327 1.6 4.8 0.00 0.00 0.00 77 1015.0
20260905195807 25 16 0.0 3.2 0.00 0.00 0.00 78 1015.0
20260905195307 25 0 1.6 4.8 0.00 0.00 0.00 78 1015.1
20260905194752 25 33 1.6 4.8 0.00 0.00 0.00 77 1015.1
20260905194253 25 211 1.6 3.2 0.00 0.00 0.00 77 1015.2
20260905193753 25 323 1.6 4.8 0.00 0.00 0.00 78 1015.2
20260905193254 25 316 1.6 4.8 0.00 0.00 0.00 77 1015.2
20260905193023 25 299 1.6 4.8 0.00 0.00 0.00 77 1015.2
20260905192253 25 336 1.6 4.8 0.00 0.00 0.00 78 1015.2
20260905192022 25 215 3.2 8.0 0.00 0.00 0.00 79 1015.3
20260905191251 25 262 3.2 8.0 0.00 0.00 0.00 79 1015.3
20260905190751 25 291 3.2 6.4 0.00 0.00 0.00 79 1015.2
20260905190252 25 0 1.6 6.4 0.00 0.00 0.00 79 1015.2
20260905190009 25 267 1.6 6.4 0.00 0.00 0.00 79 1015.2
20260905185238 25 0 1.6 6.4 0.00 0.00 0.00 79 1015.4
20260905184724 24 326 1.6 6.4 0.00 0.00 0.00 81 1015.4
20260905184224 24 314 3.2 4.8 0.00 0.00 0.00 81 1015.4
20260905183724 25 316 1.6 4.8 0.00 0.00 0.00 80 1015.4
20260905183224 25 310 1.6 6.4 0.00 0.00 0.00 80 1015.3
20260905182725 25 294 1.6 6.4 0.00 0.00 0.00 80 1015.3
20260905182224 25 53 1.6 6.4 0.00 0.00 0.00 81 1015.4
20260905181956 25 283 1.6 4.8 0.00 0.00 0.00 80 1015.4
20260905181223 25 300 1.6 4.8 0.00 0.00 0.00 81 1015.3
20260905180724 25 270 1.6 3.2 0.00 0.00 0.00 81 1015.4
20260905180210 25 305 1.6 4.8 0.00 0.00 0.00 80 1015.3
20260905175710 25 84 1.6 4.8 0.00 0.00 0.00 80 1015.2
20260905175211 25 86 1.6 4.8 0.00 0.00 0.00 81 1015.2
20260905174925 25 307 1.6 4.8 0.00 0.00 0.00 81 1015.1
20260905174156 25 315 1.6 3.2 0.00 0.00 0.00 80 1015.1
20260905173654 25 303 1.6 3.2 0.00 0.00 0.00 81 1015.2
20260905173201 25 309 3.2 6.4 0.00 0.00 0.00 81 1015.1
20260905173157 25 76 1.6 6.4 0.00 0.00 0.00 80 1015.2
20260905172157 25 301 1.6 6.4 0.00 0.00 0.00 80 1015.2
20260905171654 25 323 0.0 3.2 0.00 0.00 0.00 79 1015.2
20260905171155 25 89 0.0 4.8 0.00 0.00 0.00 80 1015.3
20260905170653 24 58 1.6 8.0 0.00 0.00 0.00 81 1015.3
20260905170155 24 342 3.2 8.0 0.00 0.00 0.00 81 1015.3
20260905165653 24 43 1.6 4.8 0.00 0.00 0.00 80 1015.4
20260905165156 24 246 1.6 3.2 0.00 0.00 0.00 81 1015.5
20260905164654 24 318 1.6 3.2 0.00 0.00 0.00 80 1015.5
20260905164155 24 278 1.6 3.2 0.00 0.00 0.00 80 1015.4
20260905163640 24 247 1.6 3.2 0.00 0.00 0.00 81 1015.5
20260905163156 24 51 1.6 6.4 0.00 0.00 0.00 82 1015.5
20260905162602 -17 289 1.6 3.2 0.00 0.00 0.00
20260905161932 24 306 0.0 3.2 0.00 0.00 0.00 81 1015.4
20260905161426 24 79 0.0 3.2 0.00 0.00 0.00 81 1015.4
20260905161127 24 238 1.6 3.2 0.00 0.00 0.00 81 1015.3
20260905160354 24 92 1.6 3.2 0.00 0.00 0.00 81 1015.2
20260905155655 24 254 1.6 4.8 0.00 0.00 0.00 81 1015.2
20260905155053 24 260 1.6 6.4 0.00 0.00 0.00 81 1015.2
20260905154541 24 288 1.6 6.4 0.00 0.00 0.00 81 1015.2
20260905154027 24 299 1.6 3.2 0.00 0.00 0.00 83 1015.2
20260905153511 24 284 1.6 3.2 0.00 0.00 0.00 83 1015.0
20260905153012 24 0 1.6 8.0 0.00 0.00 0.00 83 1014.9
20260905152452 24 0 1.6 8.0 0.00 0.00 0.00 83 1015.0
20260905151952 24 269 1.6 4.8 0.00 0.00 0.00 84 1014.9
20260905151452 24 265 1.6 6.4 0.00 0.00 0.00 84 1014.8
20260905150953 24 0 1.6 6.4 0.00 0.00 0.00 84 1014.8
20260905150453 24 0 1.6 6.4 0.00 0.00 0.00 84 1014.8
20260905145940 24 285 1.6 6.4 0.00 0.00 0.00 84 1014.8
20260905145440 24 0 1.6 4.8 0.00 0.00 0.00 83 1014.7
20260905144925 24 308 0.0 3.2 0.00 0.00 0.00 83 1014.7
20260905144425 24 292 0.0 3.2 0.00 0.00 0.00 83 1014.7
20260905143925 24 281 0.0 3.2 0.00 0.00 0.00 83 1014.6
20260905143656 24 307 0.0 3.2 0.00 0.00 0.00 84 1014.6
20260905143156 24 318 0.0 3.2 0.00 0.00 0.00 84 1014.6
20260905142425 24 191 1.6 3.2 0.00 0.00 0.00 84 1014.5
20260905142155 24 266 1.6 3.2 0.00 0.00 0.00 83 1014.4
20260905141425 24 0 1.6 3.2 0.00 0.00 0.00 85 1014.5
20260905140925 23 236 1.6 3.2 0.00 0.00 0.00 85 1014.4
20260905140426 23 255 0.0 6.4 0.00 0.00 0.00 86 1014.4
20260905135925 23 0 0.0 6.4 0.00 0.00 0.00 87 1014.5
20260905135411 23 246 0.0 6.4 0.00 0.00 0.00 88 1014.5
20260905134910 23 0 0.0 3.2 0.00 0.00 0.00 88 1014.6
20260905134356 23 0 1.6 4.8 0.00 0.00 0.00 89 1014.6
20260905133856 23 268 1.6 4.8 0.00 0.00 0.00 89 1014.6
20260905133356 23 25 0.0 4.8 0.00 0.00 0.00 89 1014.8
20260905132856 23 279 0.0 4.8 0.00 0.00 0.00 90 1014.9
20260905132356 23 0 0.0 4.8 0.00 0.00 0.00 90 1014.7
20260905131856 23 0 0.0 4.8 0.00 0.00 0.00 91 1014.5
20260905131355 23 0 0.0 3.2 0.00 0.00 0.00 91 1014.3
20260905130856 23 0 0.0 0.0 0.00 0.00 0.00 92 1014.3
20260905130355 23 268 0.0 4.8 0.00 0.00 0.00 91 1014.3
20260905125854 22 61 1.6 4.8 0.00 0.00 0.00 92 1014.3
20260905125613 22 317 0.0 4.8 0.00 0.00 0.00 92 1014.2
20260905124826 22 297 1.6 4.8 0.00 0.00 0.00 92 1014.2
20260905124327 22 271 1.6 4.8 0.00 0.00 0.00 92 1014.1
20260905123830 22 0 0.0 1.6 0.00 0.00 0.00 92 1013.9
20260905123826 22 9 0.0 3.2 0.00 0.00 0.00 92 1014.0
20260905122827 22 0 0.0 1.6 0.00 0.00 0.00 92 1013.8
20260905122327 22 0 0.0 1.6 0.00 0.00 0.00 92 1013.7
20260905121827 22 0 0.0 3.2 0.00 0.00 0.00 92 1013.7
20260905121559 22 350 0.0 3.2 0.00 0.00 0.00 92 1013.6
20260905120828 22 0 0.0 3.2 0.00 0.00 0.00 92 1013.6
20260905120543 22 1 0.0 3.2 0.00 0.00 0.00 92 1013.6
20260905115812 22 319 0.0 3.2 0.00 0.00 0.00 92 1013.5